Погода в Большеникольском

Россия / Челябинская область     54°33′03″N   62°11′00″E
темп.,
°C
ветер,
м/с
пор.,
м/с
влажн.,
%
обл.,
%
осадки,
мм/ч
давл.,
гПа
погр.,
м
24 января, вс
вс2423:00−28ю3694100 0.0 1039138
02:00−26ю479398 0.0 1038224
05:00−25ю579898 0.3 1038253
08:00−24ююв5897100 0.3 1037274
11:00−22ююв5896100 0.4 1036285
14:00−19ю5896100 0.1 1034328
17:00−17ююв5996100 0.4 1033337
20:00−15ю51095100 0.5 1031343
25 января, пн
пн2523:00−12ю599598 0.8 1029285
02:00−10ююз369697 0.2 1028147
05:00−7зюз339297 0.2 102873
08:00−2з3797100 0.4 1028208
11:00+1з37100100 0.6 1030236
14:00+1з47100100 0.1 1030195
17:00−2з449087 0.1 103175
20:00−3з348944 0.0 103132
26 января, вт
вт2623:00−4з338865 0.0 103226
02:00−6юз348966 0.0 103234
05:00−8зюз339277 0.0 103226
08:00−8зюз339098 0.0 103224
11:00−8зюз239079 0.0 103332
14:00−6юз339119 0.0 103282
17:00−7юз349032 0.0 103248
20:00−6зюз349189 0.0 103280
27 января, ср
ср2723:00−7юз479094 0.0 1031104
02:00−7юз4788100 0.0 1032122
05:00−7зюз4786100 0.0 1031123
08:00−8зюз488695 0.0 1031109
11:00−7юз498894 0.0 1031179
14:00−4юз599053 0.0 1031273
17:00−4юз4109177 0.0 1030239
20:00−5юз499194 0.0 1031173
28 января, чт
чт2823:00−7юз499197 0.0 1031168
02:00−7юз5109380 0.0 1031173
05:00−7юз5119390 0.0 1031212
08:00−7юз5119293 0.0 1031211
11:00−6юз5129390 0.0 1031284
14:00−4юз6119096 0.0 1030349
17:00−6ююз5109198 0.0 1030268
20:00−8ююз5119087 0.0 1030258